Weather History for Ord, NE

Change the Weather History Date:

Thursday, November 14, 2013

  Actual Average Record
Temperature  
Mean Temperature 43 °F 37 °F  
Max Temperature 59 °F 49 °F 66 °F (2001)
Min Temperature 26 °F 25 °F -2 °F (2014)
Degree Days  
Heating Degree Days 22 28  
Month to date heating degree days 376 347  
Since 1 July heating degree days 950 967  
Cooling Degree Days 0 0  
Month to date cooling degree days 0 0  
Year to date cooling degree days 907 845  
Moisture  
Dew Point 31 °F    
Average Humidity 64    
Maximum Humidity 92    
Minimum Humidity 36    
Precipitation  
Precipitation 0.00 in 0.04 in 0.44 in (1968)
Month to date precipitation 0.47 0.58  
Year to date precipitation 24.32 23.86  
Sea Level Pressure  
Sea Level Pressure 29.95 in    
Wind  
Wind Speed 6 mph (NW)    
Max Wind Speed 15 mph    
Max Gust Speed 20 mph    
Visibility 10 miles    
Events      
T = Trace of Precipitation, MM = Missing Value Source: NWS Daily Summary

Daily Weather History Graph

Daily Weather History Graph

Search for Another Location

Airport:

Trip Planner

Search our weather history database for the weather conditions in past years. The results will help you decide how hot, cold, wet, or windy it might be!

Date:

Astronomy

Nov. 14, 2013 Rise Set
Actual Time 7:23 AM CST 5:16 PM CST
Civil Twilight 6:54 AM CST 5:45 PM CST
Nautical Twilight 6:20 AM CST 6:19 PM CST
Astronomical Twilight 5:47 AM CST 6:52 PM CST
Moon 3:40 PM CST (11/14) 4:18 AM CST (11/14)
Length of Visible Light 10h 51m
Length of Day
9h 52m
Waxing Gibbous, 92% of the Moon is Illuminated
Nov 14
Waxing Gibbous
Nov 17
Full
Nov 25
Last Quarter
Dec 2
New
Dec 9
First Quarter

Hourly Weather History & Observations

Time (CST) Temp. Windchill Dew Point Humidity Pressure Visibility Wind Dir Wind Speed Gust Speed Precip Events Conditions
12:53 AM 28.9 °F 25.2 °F 27.0 °F 92% 29.94 in 10.0 mi NW 3.5 mph - N/A   Clear
1:53 AM 30.9 °F - 28.9 °F 92% 29.93 in 10.0 mi Calm Calm - N/A   Clear
2:53 AM 28.9 °F - 27.0 °F 92% 29.94 in 10.0 mi Calm Calm - N/A   Clear
3:53 AM 30.9 °F 25.2 °F 28.9 °F 92% 29.93 in 10.0 mi NNW 5.8 mph - N/A   Clear
4:53 AM 33.1 °F 26.9 °F 30.0 °F 89% 29.93 in 10.0 mi NNW 6.9 mph - N/A   Clear
5:53 AM 37.0 °F 31.0 °F 33.1 °F 86% 29.96 in 10.0 mi NW 8.1 mph - N/A   Clear
6:53 AM 37.9 °F 31.5 °F 33.1 °F 83% 29.99 in 10.0 mi NNW 9.2 mph - N/A   Clear
7:53 AM 39.0 °F 33.4 °F 34.0 °F 82% 30.00 in 10.0 mi NNW 8.1 mph - N/A   Clear
8:53 AM 46.0 °F 41.4 °F 39.0 °F 76% 30.01 in 10.0 mi NNW 9.2 mph - N/A   Clear
9:53 AM 50.0 °F - 39.9 °F 68% 30.01 in 10.0 mi North 8.1 mph - N/A   Scattered Clouds
10:53 AM 52.0 °F - 39.9 °F 63% 30.00 in 10.0 mi North 9.2 mph - N/A   Overcast
11:53 AM 52.0 °F - 39.0 °F 61% 29.99 in 10.0 mi NNW 11.5 mph - N/A   Overcast
12:53 PM 55.9 °F - 37.0 °F 49% 29.96 in 10.0 mi NNW 11.5 mph - N/A   Clear
1:53 PM 57.0 °F - 34.0 °F 42% 29.93 in 10.0 mi NW 12.7 mph - N/A   Clear
2:53 PM 57.9 °F - 33.1 °F 39% 29.92 in 10.0 mi NW 6.9 mph - N/A   Clear
3:53 PM 57.9 °F - 30.9 °F 36% 29.91 in 10.0 mi NW 8.1 mph - N/A   Clear
4:53 PM 51.1 °F - 30.9 °F 46% 29.92 in 10.0 mi WNW 5.8 mph - N/A   Clear
5:53 PM 39.0 °F - 28.9 °F 67% 29.93 in 10.0 mi Calm Calm - N/A   Clear
6:53 PM 34.0 °F - 27.0 °F 75% 29.95 in 10.0 mi Calm Calm - N/A   Clear
7:53 PM 30.0 °F 26.5 °F 26.1 °F 85% 29.96 in 10.0 mi SSW 3.5 mph - N/A   Clear
8:53 PM 30.0 °F - 26.1 °F 85% 29.94 in 10.0 mi Calm Calm - N/A   Clear
9:53 PM 27.0 °F 23.0 °F 24.1 °F 89% 29.94 in 9.0 mi SW 3.5 mph - N/A   Clear
10:53 PM 28.0 °F - 25.0 °F 88% 29.92 in 10.0 mi Calm Calm - N/A   Clear
11:53 PM 26.1 °F - 23.0 °F 88% 29.91 in 4.0 mi Calm Calm - N/A   Clear